Change the Weather History Date:

Wednesday, February 20, 2013

  Actual Average Record
Temperature  
Mean Temperature 35 °F 47 °F  
Max Temperature 42 °F 58 °F 78 °F (1986)
Min Temperature 27 °F 37 °F 13 °F (1978)
Degree Days  
Heating Degree Days 30 18  
Month to date heating degree days 401 403  
Since 1 July heating degree days 2078 2299  
Cooling Degree Days 0 0  
Month to date cooling degree days 0 0  
Year to date cooling degree days 6 1  
Moisture  
Dew Point 21 °F    
Average Humidity 66    
Maximum Humidity 92    
Minimum Humidity 40    
Precipitation  
Precipitation 0.01 in 0.19 in 3.54 in (1989)
Month to date precipitation 2.21 3.42  
Year to date precipitation 10.92 7.90  
Snow  
Snow T in 0.00 in 2.00 in (1941)
Month to date snowfall T 0.5  
Since 1 July snowfall T 1.7  
Snow Depth 0.00 in    
Sea Level Pressure  
Sea Level Pressure 30.26 in    
Wind  
Wind Speed 6 mph (NE)    
Max Wind Speed 17 mph    
Max Gust Speed 20 mph    
Visibility 10 miles    
Events Rain    
T = Trace of Precipitation, MM = Missing Value Source: NWS Daily Summary

Daily Weather History Graph

Daily Weather History Graph

Search for Another Location

Airport or City:

Trip Planner

Search our weather history database for the weather conditions in past years. The results will help you decide how hot, cold, wet, or windy it might be!

Date:

Astronomy

Feb. 20, 2013 Rise Set
Actual Time 6:34 AM CST 5:43 PM CST
Civil Twilight 6:08 AM CST 6:09 PM CST
Nautical Twilight 5:39 AM CST 6:38 PM CST
Astronomical Twilight 5:10 AM CST 7:07 PM CST
Moon 1:12 PM CST (2/20) 2:46 AM CST (2/20)
Length of Visible Light 12h 00m
Length of Day
11h 09m
Waxing Gibbous, 76% of the Moon is Illuminated
Feb 20
Waxing Gibbous
Feb 25
Full
Mar 4
Last Quarter
Mar 11
New
Mar 19
First Quarter

Hourly Weather History & Observations

Time (CST) Temp. Windchill Dew Point Humidity Pressure Visibility Wind Dir Wind Speed Gust Speed Precip Events Conditions
12:53 AM 28.9 °F 25.2 °F 26.1 °F 89% 30.27 in 10.0 mi NNE 3.5 mph - N/A   Clear
1:53 AM 30.0 °F - 25.0 °F 82% 30.27 in 10.0 mi Calm Calm - N/A   Clear
2:53 AM 32.0 °F - 25.0 °F 75% 30.27 in 10.0 mi Calm Calm - N/A   Clear
3:53 AM 30.9 °F 23.5 °F 21.9 °F 69% 30.27 in 10.0 mi NNE 8.1 mph - N/A   Clear
4:53 AM 30.9 °F 25.2 °F 19.9 °F 64% 30.28 in 10.0 mi NE 5.8 mph - N/A   Clear
5:53 AM 28.9 °F 23.9 °F 19.9 °F 69% 30.29 in 10.0 mi ENE 4.6 mph - N/A   Clear
6:53 AM 30.0 °F 24.1 °F 21.0 °F 69% 30.29 in 10.0 mi NE 5.8 mph - N/A   Clear
7:53 AM 32.0 °F 24.2 °F 19.9 °F 61% 30.33 in 10.0 mi NNE 9.2 mph - N/A   Clear
8:53 AM 33.1 °F 24.9 °F 19.0 °F 56% 30.34 in 10.0 mi NNE 10.4 mph - N/A   Clear
9:53 AM 35.1 °F 28.6 °F 18.0 °F 50% 30.34 in 10.0 mi NNE 8.1 mph - N/A   Clear
10:53 AM 36.0 °F 30.3 °F 17.1 °F 46% 30.34 in 10.0 mi NNE 6.9 mph - N/A   Mostly Cloudy
11:53 AM 36.0 °F 28.5 °F 18.0 °F 48% 30.28 in 10.0 mi ENE 10.4 mph - N/A   Overcast
12:53 PM 36.0 °F - 19.9 °F 52% 30.31 in 10.0 mi Calm Calm - 0.00 in   Overcast
1:53 PM 37.0 °F 33.3 °F 21.0 °F 52% 30.30 in 10.0 mi NE 4.6 mph - 0.01 in   Overcast
2:53 PM 37.9 °F 31.5 °F 25.0 °F 60% 30.22 in 10.0 mi ENE 9.2 mph - 0.00 in Rain Light Rain
3:53 PM 42.1 °F 35.2 °F 19.0 °F 40% 30.21 in 10.0 mi NE 12.7 mph - 0.00 in   Partly Cloudy
4:53 PM 39.9 °F 36.7 °F 17.1 °F 40% 30.20 in 10.0 mi ENE 4.6 mph - N/A   Scattered Clouds
5:53 PM 39.0 °F 34.0 °F 19.9 °F 46% 30.21 in 10.0 mi NE 6.9 mph - N/A   Overcast
6:53 PM 39.0 °F 34.8 °F 19.0 °F 45% 30.21 in 10.0 mi ENE 5.8 mph - N/A   Overcast
7:53 PM 37.9 °F 32.7 °F 21.0 °F 51% 30.23 in 10.0 mi NE 6.9 mph - N/A   Overcast
8:53 PM 37.0 °F 32.4 °F 21.0 °F 52% 30.22 in 10.0 mi ENE 5.8 mph - N/A   Scattered Clouds
9:53 PM 37.9 °F 33.5 °F 21.0 °F 51% 30.21 in 10.0 mi ENE 5.8 mph - N/A   Overcast
10:53 PM 37.9 °F 35.5 °F 21.9 °F 53% 30.20 in 10.0 mi ENE 3.5 mph - N/A   Overcast
11:53 PM 37.9 °F 33.5 °F 21.0 °F 51% 30.19 in 10.0 mi NE 5.8 mph - N/A   Overcast